Weather History for Kill Devil Hills, NC

Change the Weather History Date:

Tuesday, January 1, 2013

  Actual Average (KMQI) Record (KMQI)
Temperature  
Mean Temperature 46 °F -  
Max Temperature 47 °F 50 °F 86 °F (2006)
Min Temperature 44 °F 37 °F 21 °F (1977)
Degree Days  
Heating Degree Days 20    
Moisture  
Dew Point 39 °F    
Average Humidity 77    
Maximum Humidity 96    
Minimum Humidity 62    
Precipitation  
Precipitation 0.05 in - - ()
Sea Level Pressure  
Sea Level Pressure 30.01 in    
Wind  
Wind Speed 6 mph (WSW)    
Max Wind Speed 10 mph    
Max Gust Speed 16 mph    
Visibility 9 miles    
Events Rain    
Averages and records for this station are not official NWS values.
T = Trace of Precipitation, MM = Missing Value Source: NWS Daily Summary

Daily Weather History Graph

Daily Weather History Graph

Search for Another Location

Airport:

Trip Planner

Search our weather history database for the weather conditions in past years. The results will help you decide how hot, cold, wet, or windy it might be!

Date:

Astronomy

Jan. 01, 2013 Rise Set
Actual Time 7:13 AM EST 4:59 PM EST
Civil Twilight 6:44 AM EST 5:28 PM EST
Nautical Twilight 6:12 AM EST 6:00 PM EST
Astronomical Twilight 5:41 AM EST 6:31 PM EST
Moon 9:19 PM EST (1/1) 9:32 AM EST (1/1)
Length of Visible Light 10h 43m
Length of Day
9h 46m
Waning Gibbous, 83% of the Moon is Illuminated
Jan 1
Waning Gibbous
Jan 4
Last Quarter
Jan 11
New
Jan 18
First Quarter
Jan 26
Full

Hourly Weather History & Observations

Time (EST) Temp. Windchill Dew Point Humidity Pressure Visibility Wind Dir Wind Speed Gust Speed Precip Events Conditions
12:15 AM 46.6 °F - 36.1 °F 67% 30.10 in 10.0 mi WSW 9.2 mph - N/A   Clear
12:35 AM 46.8 °F - 36.3 °F 67% 30.10 in 10.0 mi WSW 10.4 mph 16.1 mph N/A   Clear
1:15 AM 46.6 °F - 36.3 °F 67% 30.08 in 10.0 mi WSW 8.1 mph - N/A   Clear
1:35 AM 46.4 °F 42.9 °F 36.5 °F 68% 30.07 in 10.0 mi WSW 6.9 mph - N/A   Clear
1:55 AM 46.4 °F 42.4 °F 36.7 °F 69% 30.08 in 10.0 mi WSW 8.1 mph - N/A   Clear
2:15 AM 46.4 °F 43.5 °F 36.9 °F 69% 30.07 in 10.0 mi WSW 5.8 mph - N/A   Clear
2:35 AM 46.4 °F 42.9 °F 37.2 °F 70% 30.07 in 10.0 mi WSW 6.9 mph - N/A   Clear
2:55 AM 46.6 °F - 37.4 °F 70% 30.08 in 10.0 mi WSW 8.1 mph - N/A   Clear
3:15 AM 47.1 °F - 37.2 °F 68% 30.07 in 10.0 mi WSW 6.9 mph - N/A   Clear
3:35 AM 46.9 °F - 37.2 °F 69% 30.06 in 10.0 mi WSW 6.9 mph - N/A   Clear
3:55 AM 46.4 °F 42.4 °F 37.4 °F 71% 30.06 in 10.0 mi WSW 8.1 mph - N/A   Clear
4:15 AM 46.4 °F 42.9 °F 37.4 °F 71% 30.05 in 10.0 mi WSW 6.9 mph - N/A   Clear
4:35 AM 46.6 °F - 37.2 °F 70% 30.03 in 10.0 mi WSW 6.9 mph - N/A   Clear
5:15 AM 46.4 °F 43.5 °F 37.0 °F 70% 30.02 in 10.0 mi SW 5.8 mph - N/A   Scattered Clouds
5:35 AM 46.4 °F 42.4 °F 37.6 °F 71% 30.03 in 10.0 mi SW 8.1 mph - N/A   Mostly Cloudy
5:55 AM 46.2 °F 43.3 °F 37.9 °F 73% 30.03 in 10.0 mi SW 5.8 mph - N/A   Overcast
6:15 AM 46.2 °F 41.7 °F 38.3 °F 74% 30.04 in 10.0 mi SW 9.2 mph - N/A   Scattered Clouds
6:35 AM 46.8 °F - 37.9 °F 71% 30.04 in 10.0 mi WSW 9.2 mph - N/A   Clear
6:55 AM 47.3 °F - 37.0 °F 68% 30.04 in 10.0 mi WSW 8.1 mph - N/A   Clear
7:15 AM 47.5 °F - 35.8 °F 64% 30.03 in 10.0 mi WSW 6.9 mph - N/A   Clear
7:35 AM 47.5 °F - 35.1 °F 62% 30.04 in 10.0 mi WSW 8.1 mph - N/A   Scattered Clouds
7:55 AM 47.5 °F - 34.9 °F 62% 30.04 in 10.0 mi WSW 6.9 mph - N/A   Mostly Cloudy
8:15 AM 47.7 °F - 35.4 °F 63% 30.05 in 10.0 mi West 9.2 mph - N/A   Scattered Clouds
8:35 AM 47.7 °F - 36.1 °F 64% 30.06 in 10.0 mi WSW 9.2 mph - N/A   Scattered Clouds
8:55 AM 47.5 °F - 36.9 °F 67% 30.07 in 10.0 mi West 9.2 mph - N/A   Scattered Clouds
9:15 AM 47.3 °F - 37.0 °F 68% 30.06 in 10.0 mi WSW 6.9 mph - N/A   Scattered Clouds
9:35 AM 47.3 °F - 37.0 °F 68% 30.07 in 10.0 mi WSW 5.8 mph - N/A Rain Light Rain
9:55 AM 47.5 °F - 37.0 °F 67% 30.07 in 10.0 mi WSW 6.9 mph - N/A   Overcast
10:15 AM 47.7 °F - 37.0 °F 67% 30.07 in 10.0 mi WSW 6.9 mph - N/A   Overcast
10:35 AM 47.5 °F - 37.4 °F 68% 30.07 in 10.0 mi WSW 6.9 mph - N/A   Overcast
10:55 AM 47.5 °F - 37.8 °F 69% 30.06 in 10.0 mi WSW 8.1 mph - N/A   Light Drizzle
11:15 AM 46.9 °F - 38.5 °F 72% 30.03 in 10.0 mi SW 6.9 mph - N/A   Drizzle
11:35 AM 46.6 °F - 38.7 °F 74% 30.01 in 10.0 mi SW 4.6 mph - N/A   Light Drizzle
12:15 PM 46.8 °F - 39.6 °F 76% 29.98 in 10.0 mi SW 3.5 mph - N/A Rain Light Rain
12:35 PM 46.2 °F 43.3 °F 40.5 °F 80% 29.97 in 10.0 mi WSW 5.8 mph - N/A Rain Light Rain
12:55 PM 45.9 °F 42.9 °F 40.8 °F 83% 29.96 in 10.0 mi WSW 5.8 mph - N/A   Light Drizzle
1:15 PM 46.4 °F 42.4 °F 40.3 °F 79% 29.97 in 10.0 mi WNW 8.1 mph - N/A   Mostly Cloudy
1:35 PM 46.8 °F - 39.4 °F 75% 29.95 in 10.0 mi WSW 4.6 mph - N/A   Overcast
1:55 PM 46.6 °F - 39.4 °F 76% 29.92 in 10.0 mi Calm Calm - N/A Rain Light Rain
2:15 PM 46.6 °F - 39.7 °F 77% 29.93 in 10.0 mi Calm Calm - N/A   Mostly Cloudy
2:35 PM 46.6 °F - 40.1 °F 78% 29.96 in 10.0 mi West 5.8 mph - N/A   Mostly Cloudy
2:55 PM 46.6 °F - 40.3 °F 79% 29.97 in 10.0 mi West 6.9 mph - N/A   Light Drizzle
3:15 PM 46.9 °F - 40.5 °F 78% 29.97 in 10.0 mi West 5.8 mph - N/A Rain Light Rain
3:35 PM 46.8 °F - 41.0 °F 80% 29.96 in 10.0 mi WSW 3.5 mph - N/A   Mostly Cloudy
3:55 PM 47.1 °F - 40.6 °F 78% 29.94 in 10.0 mi WSW 4.6 mph - N/A   Mostly Cloudy
4:15 PM 46.9 °F - 40.3 °F 78% 29.94 in 10.0 mi WSW 4.6 mph - N/A   Overcast
4:35 PM 46.4 °F 45.2 °F 40.5 °F 80% 29.94 in 10.0 mi WSW 3.5 mph - N/A   Mostly Cloudy
5:15 PM 46.4 °F 44.3 °F 40.6 °F 80% 29.95 in 10.0 mi WSW 4.6 mph - N/A   Overcast
5:35 PM 46.0 °F 44.8 °F 41.0 °F 83% 29.94 in 10.0 mi WSW 3.5 mph - N/A Rain Rain
5:55 PM 45.7 °F 43.4 °F 41.2 °F 84% 29.94 in 10.0 mi SW 4.6 mph - N/A   Light Drizzle
6:15 PM 45.7 °F 42.7 °F 41.4 °F 85% 29.97 in 10.0 mi WNW 5.8 mph - N/A   Light Drizzle
6:35 PM 45.1 °F - 41.4 °F 87% 29.96 in 10.0 mi Calm Calm - N/A   Mostly Cloudy
6:55 PM 45.0 °F - 41.5 °F 88% 29.98 in 10.0 mi Calm Calm - N/A   Mostly Cloudy
7:15 PM 45.0 °F - 41.5 °F 88% 29.98 in 10.0 mi Calm Calm - N/A   Light Drizzle
7:35 PM 45.0 °F 42.6 °F 41.9 °F 89% 29.97 in 10.0 mi West 4.6 mph - N/A Rain Light Rain
7:55 PM 45.1 °F 42.0 °F 42.1 °F 89% 29.96 in 10.0 mi West 5.8 mph - N/A   Light Drizzle
8:15 PM 45.1 °F 42.8 °F 41.9 °F 88% 29.97 in 10.0 mi West 4.6 mph - N/A   Drizzle
8:35 PM 44.8 °F 43.3 °F 42.1 °F 90% 29.97 in 7.0 mi West 3.5 mph - 0.01 in   Drizzle
8:55 PM 44.6 °F 43.1 °F 42.4 °F 92% 29.97 in 7.0 mi West 3.5 mph - 0.01 in   Drizzle
9:15 PM 44.6 °F - 42.6 °F 93% 29.98 in 7.0 mi Calm Calm - N/A   Drizzle
9:35 PM 44.6 °F - 42.8 °F 93% 29.98 in 7.0 mi Calm Calm - N/A   Drizzle
9:55 PM 44.6 °F 43.1 °F 42.8 °F 93% 29.99 in 5.0 mi West 3.5 mph - 0.01 in   Drizzle
10:15 PM 44.6 °F - 43.2 °F 95% 29.98 in 5.0 mi Calm Calm - N/A Rain Rain
10:35 PM 44.6 °F - 43.2 °F 95% 29.98 in 5.0 mi Calm Calm - N/A   Drizzle
10:55 PM 44.6 °F - 43.2 °F 95% 29.98 in 4.0 mi Calm Calm - 0.01 in   Drizzle
11:15 PM 44.4 °F - 43.2 °F 95% 29.99 in 4.0 mi Calm Calm - N/A Rain Rain
11:35 PM 44.2 °F - 43.2 °F 96% 29.97 in 3.0 mi Calm Calm - 0.01 in Rain Rain
11:55 PM 44.6 °F 43.1 °F 43.3 °F 95% 29.97 in 2.5 mi NNW 3.5 mph - 0.02 in Rain Rain